SCP
0 -0 -0 -0 0 0 -0 -0 0 0 -0 -0 0 0 0 -0 0 0 -0 -0 0 -0 -0 0 0 0 -0 0 -0 -0 -0 -0 -0 -0 -0 -0 0 0 -0 -0 -0 -0 -0 -0 -0 -0 -0 -0 0
0 -0 -0 0 0 -0 -0 -0 0 0 0 -0 -0 -0 -0 -0 -0 -0 0 0 0 -0 -0 -0 0 0 -0 0 -0 -0 0 0 0 0 0 0 0 0 0 0 0 0 -0 -0 -0 -0 -0 -0 -0
0 -0 0 0 -0 -0 -0 0 0 0 -0 0 0 -0 0 0 0 -0 -0 0 0 0 0 0 0 0 0 0 0 0 0 0 0 0 0 0 0 0 0 0 0 0 0 -0 -0 0 0 0 0
0 0 0 0 0 -0 0 0 -0 -0 -0 -0 0 0 0 -0 0 -0 0 -0 0 0 0 0 0 0 0 0 0 0 0 0 0 0 0 0 0 0 0 0 0 0 0 -0 -0 -0 -0 0 0
0 0 -0 0 0 0 -0 0 0 0 0 0 0 0 0 0 -0 -0 -0 -0 0 0 0 0 0 0 0 0 0 0 0 0 0 0 0 0 0 0 0 0 0 0 -0 0 0 0 0 0 0
0 0 -0 0 -0 0 -0 0 -0 0 0 0 0 0 0 -0 -0 0 -0 -0 0 0 0 0 0 0 0 0 0 0 0 0 0 0 0 0 0 0 0 0 0 0 0 0 0 0 0 0 0
-0 -0 -0 -0 0 0 0 0 0 0 -0 0 0 0 0 -0 -0 0 -0 0 0 0 -0 -0 -0 -0 -0 -0 -0 -0 0 0 0 0 0 0 0 0 0 0 0 0 0 0 0 0 0 0 0
-0 -0 -0 -0 0 0 0 0 0 0 -0 0 0 0 0 -0 -0 0 0 0 0 0 -0 -0 -0 -0 -0 -0 0 0 0 0 0 0 0 0 0 0 0 0 0 0 0 0 0 0 0 0 0
0 -0 -0 0 0 -0 0 0 0 -0 -0 0 0 0 0 0 0 0 -0 0 0 0 0 0 -0 0 0 0 0 0 0 0 0 0 0 0 0 0 0 0 0 0 0 0 0 0 0 0 0
-0 -0 0 0 0 0 0 0 0 0 0 0 0 1 0 0 0 0 -0 -0 0 0 0 0 0 0 0 0 0 0 0 0 0 0 0 0 0 0 0 0 0 0 0 0 0 0 0 0 0
-0 -0 0 0 -0 -0 -0 -0 0 0 0 0 0 0 1 0 0 1 -0 -0 0 0 0 0 0 0 0 0 0 0 0 0 0 0 0 0 0 0 0 -0 -0 -0 0 0 0 0 0 0 0
-0 0 0 0 0 0 0 -0 0 0 0 0 0 0 0 0 0 0 0 0 0 0 0 0 0 0 0 0 0 0 0 0 0 0 0 0 0 0 -0 -0 0 0 0 0 0 0 -0 -0 0
0 0 0 0 0 0 0 0 0 0 0 0 0 0 0 0 0 0 0 0 0 0 0 0 0 0 0 0 0 0 0 0 0 0 0 0 0 -0 0 -0 0 -0 -0 -0 0 0 0 0 0
-0 0 0 0 0 0 0 0 0 0 0 0 0 0 0 0 0 0 0 0 0 0 0 0 0 0 0 0 0 0 0 0 0 0 0 0 0 0 0 0 0 0 0 0 0 0 0 0 0
0 0 0 0 0 0 0 0 0 0 0 0 0 0 0 0 0 0 0 0 0 0 0 0 0 0 0 0 0 0 0 0 0 0 0 0 0 0 0 0 0 0 0 0 0 0 0 0 0
0 -0 0 0 0 0 0 0 0 0 0 0 0 0 0 0 0 0 0 0 0 0 0 0 0 0 0 0 0 0 0 0 0 0 0 0 0 0 0 0 0 0 0 0 0 0 0 0 0
0 -0 -0 0 -0 0 0 0 0 0 0 0 0 0 0 0 0 0 0 0 0 0 0 0 0 0 0 0 0 0 0 0 0 0 0 0 0 0 0 0 0 0 0 0 0 0 0 0 0
0 0 0 0 0 0 0 0 0 0 0 0 0 0 0 0 0 0 0 0 0 0 0 0 0 0 0 0 0 0 0 0 0 0 0 0 -0 -0 0 0 0 0 0 0 0 0 0 0 0
0 0 0 0 0 0 0 0 0 0 0 0 0 0 1 1 0 0 0 0 0 0 0 0 0 0 0 0 0 0 0 0 0 0 -0 -0 -0 -0 0 -0 -0 0 0 0 0 0 0 0 0
0 0 0 0 0 0 0 0 0 0 0 0 0 0 0 1 1 1 0 0 0 0 0 0 0 0 0 0 0 0 0 0 0 0 -0 -0 -0 0 -0 -0 -0 0 0 0 0 0 0 0 0
0 0 0 0 0 0 0 0 0 0 0 0 0 0 0 1 1 1 0 0 0 0 0 0 0 0 0 0 0 0 0 0 0 0 0 -0 0 0 -0 0 0 0 0 0 0 0 0 0 0
0 0 0 0 0 0 0 0 0 0 0 0 0 0 0 1 1 1 0 0 0 0 0 0 0 0 0 0 0 0 0 0 0 0 0 0 0 0 0 0 0 0 0 0 0 0 0 0 0
0 0 0 0 0 0 0 0 0 0 0 0 0 0 0 0 0 0 0 0 -0 0 0 0 0 0 0 0 0 0 0 0 0 0 0 0 0 0 0 0 0 0 0 0 0 0 0 0 0
0 0 0 0 0 0 0 0 0 -0 -0 0 0 0 0 0 0 0 0 0 0 0 0 0 0 0 0 0 0 0 0 0 0 0 0 0 0 0 0 0 0 0 0 0 0 0 0 0 0
0 0 0 0 0 0 0 0 0 0 0 0 0 0 0 0 0 -0 -0 0 0 0 0 0 0 0 0 0 0 0 0 0 0 0 0 0 0 0 0 0 0 0 0 0 0 0 0 0 0
0 0 0 0 0 0 0 0 0 0 0 0 -0 0 0 -0 -0 0 0 0 0 0 0 0 0 0 0 0 0 0 0 0 0 0 0 0 0 0 0 0 0 0 0 0 0 0 0 0 0
0 0 0 0 0 0 0 0 0 0 0 0 0 0 0 0 0 0 0 0 0 0 0 0 0 0 0 0 0 0 0 0 0 0 0 0 0 0 0 0 0 0 0 0 0 0 0 0 0
0 0 0 0 0 0 0 0 0 0 0 0 0 0 0 0 0 0 0 0 0 0 0 0 0 0 0 0 0 0 0 0 0 0 0 0 0 0 0 0 0 0 0 0 0 0 0 0 0
0 0 0 0 0 0 0 0 0 0 0 0 0 0 0 0 0 0 0 0 0 0 0 0 0 0 0 0 0 0 0 0 0 0 0 0 0 0 0 0 0 0 0 0 0 0 0 0 0
0 0 0 0 0 0 0 0 0 0 0 0 0 0 0 0 0 0 0 0 -0 -0 -0 -0 -0 0 0 0 0 0 0 0 0 0 0 0 0 0 0 0 0 -0 -0 0 0 0 -0 -0 -0
Wind_Speed_500mb
38 35 27 6 7 10 4 2 9 19 13 24 49 32 13 19 6 13 33 31 34 34 32 29 29 31 32 34 34 35 35 34 34 34 33 31 31 29 27 25 23 21 18 15 12 10 9 9 11
37 31 15 6 9 9 6 9 23 31 37 38 77 42 28 17 33 43 38 35 32 32 29 29 28 28 30 32 33 34 35 34 34 32 33 31 31 30 28 26 25 24 22 20 18 16 15 15 17
34 24 6 8 6 8 7 10 22 37 45 8 15 21 14 16 37 32 46 42 32 31 29 30 29 29 30 30 30 32 33 33 33 31 31 30 29 28 26 24 23 23 23 23 22 22 23 23 23
20 9 4 8 4 6 9 9 38 29 31 20 23 12 20 31 50 49 39 39 31 31 29 29 28 28 28 29 29 30 31 30 29 28 29 28 27 25 23 23 24 26 25 24 23 24 25 26 27
15 5 7 6 3 5 7 7 17 21 25 18 34 17 14 34 55 51 31 31 31 32 29 27 26 27 27 27 29 30 31 31 31 31 28 27 26 28 26 26 27 27 27 28 29 30 29 29 31
6 2 7 2 3 7 12 36 16 12 15 28 37 32 21 43 45 47 43 41 31 33 32 29 28 27 30 30 32 35 35 34 34 29 25 24 24 21 22 20 19 23 26 26 29 28 26 28 30
8 7 7 8 9 4 11 13 17 21 16 13 38 14 31 47 37 41 39 39 37 34 35 37 34 35 39 39 38 37 32 31 30 25 22 22 22 21 23 23 26 27 26 29 31 32 30 30 31
5 9 6 1 8 16 16 18 16 33 34 21 50 15 32 64 52 46 30 38 40 37 40 38 35 31 27 29 29 26 24 20 23 23 22 21 23 24 24 26 29 32 33 35 34 33 35 38 38
10 7 7 13 4 15 16 12 18 31 13 40 33 51 75 70 60 60 60 57 47 41 38 38 35 32 29 23 22 17 15 16 19 21 21 22 23 26 29 32 34 34 35 37 38 40 43 45 46
7 7 15 15 9 10 24 26 32 11 34 24 48 63 67 80 77 76 76 67 53 48 43 37 38 38 31 23 17 13 10 14 18 21 24 28 26 35 39 43 45 44 44 46 46 45 44 46 49
2 11 13 6 17 37 34 10 25 30 17 62 69 72 85 88 80 76 70 62 57 50 46 40 33 33 29 24 16 9 3 7 14 23 30 35 37 43 47 50 49 49 49 51 51 52 54 56 58
7 47 37 23 14 25 25 35 28 44 35 72 69 80 84 81 78 80 80 77 70 64 55 52 46 40 28 16 8 2 6 12 18 24 33 40 45 50 53 54 54 58 61 61 58 57 54 57 57
12 46 52 34 15 31 39 15 13 37 67 63 59 59 61 81 84 91 89 75 67 58 50 49 40 25 15 9 6 14 9 10 16 23 31 35 38 43 50 55 57 51 56 50 66 61 56 57 58
15 35 6 22 9 16 36 22 14 45 71 65 64 57 59 74 92 88 77 67 57 50 49 40 32 19 10 7 12 15 11 9 13 22 29 30 39 40 40 44 40 47 40 45 53 55 60 63 68
29 8 9 3 8 8 50 5 18 59 75 72 63 65 82 84 86 82 75 68 58 50 41 34 28 17 16 16 11 9 4 4 12 19 19 25 31 21 29 32 47 40 37 41 48 58 65 73 83
12 9 12 11 2 8 16 12 11 50 60 64 54 74 84 88 88 80 74 67 59 51 40 29 28 20 18 19 10 5 8 10 14 18 22 25 28 33 42 46 40 40 49 61 70 75 76 66 47
15 7 9 23 16 11 9 11 17 46 52 54 57 82 86 85 79 76 68 61 55 45 35 23 20 17 18 15 10 12 13 13 21 30 36 43 42 52 58 56 58 65 71 73 63 60 58 59 68
14 7 11 14 20 17 13 13 14 55 55 57 56 71 78 87 85 77 67 58 49 39 27 9 15 19 15 12 14 15 14 22 31 45 49 48 54 57 62 71 74 71 70 66 60 62 64 73 76
7 10 12 11 10 9 5 11 15 20 19 28 34 70 66 68 78 73 67 56 46 32 16 6 11 11 15 15 13 13 18 26 43 53 55 58 62 65 75 78 81 71 70 71 73 74 74 72 68
6 5 11 9 19 10 7 4 3 19 17 39 41 49 56 69 78 75 63 49 31 23 20 18 12 5 12 15 15 18 24 36 50 54 52 59 68 71 81 80 79 67 63 64 61 58 63 65 57
8 11 7 5 12 13 15 12 24 14 46 38 14 44 72 82 76 66 56 38 32 25 14 6 7 14 21 19 19 22 30 46 57 58 55 67 67 72 77 70 61 60 59 56 51 47 45 52 51
8 2 9 9 10 2 9 6 10 15 23 27 48 36 54 59 66 57 48 45 33 9 4 9 10 17 15 18 20 30 49 59 50 49 54 63 64 74 67 60 55 55 52 48 43 41 42 42 46
10 5 7 5 3 5 12 11 9 11 16 16 30 28 26 37 33 46 42 26 10 8 9 10 13 9 12 18 34 47 38 33 38 42 51 57 72 75 64 55 54 49 49 42 38 40 40 39 39
8 8 14 10 5 6 7 9 8 5 6 11 35 42 33 28 26 29 18 13 13 15 20 18 8 7 18 29 22 17 25 30 33 40 51 66 75 63 55 52 47 47 45 39 43 43 39 38 33
19 15 8 9 10 8 6 8 10 4 9 14 37 48 35 21 14 14 23 20 20 20 16 3 7 20 16 18 20 22 24 26 35 51 63 67 63 56 51 44 44 47 41 42 44 40 36 32 30
1 12 9 3 4 9 9 8 5 5 30 47 47 42 39 32 25 25 31 30 28 23 13 8 5 10 8 14 20 26 33 40 50 58 59 55 52 45 43 42 39 41 39 39 37 33 30 28 26
9 5 7 7 6 6 3 5 8 14 22 35 36 41 41 55 62 60 50 42 32 24 21 18 18 22 27 32 39 44 47 54 61 65 54 45 40 42 42 37 36 32 30 28 29 30 30 28 27
10 5 10 9 5 6 4 4 7 12 12 15 28 47 60 58 50 42 37 30 26 24 25 29 32 35 38 41 45 48 51 59 58 46 35 27 35 43 34 24 24 23 26 32 35 36 32 31 28
11 7 7 8 9 9 2 8 7 14 9 16 36 53 60 51 41 34 29 28 33 41 51 56 56 49 43 38 38 45 54 48 35 27 20 27 32 34 32 21 28 33 32 35 42 34 31 29 26
9 5 7 9 9 5 7 8 10 7 25 46 48 54 45 38 32 29 33 42 54 62 65 61 51 40 27 28 37 43 42 36 26 24 27 26 30 32 30 22 29 29 28 31 34 36 36 32 26
Wind_Direction_500mb
351 346 334 334 51 62 107 249 84 76 34 339 303 261 152 62 51 126 130 144 134 122 120 121 118 116 112 108 103 97 93 90 87 82 77 74 74 73 69 66 63 60 54 44 29 6 338 313 293
349 348 339 14 77 66 328 340 78 110 120 174 254 253 53 68 91 121 130 126 130 122 122 119 114 107 102 99 97 96 94 89 81 76 74 71 67 65 62 57 50 45 37 29 18 4 346 328 315
338 338 345 93 91 127 150 104 149 128 142 239 269 35 52 104 107 133 129 128 131 129 127 121 115 110 105 98 94 92 90 87 83 77 71 65 62 61 59 53 41 31 20 11 3 354 344 335 327
331 334 66 83 139 353 143 185 161 159 210 156 101 63 88 125 128 132 134 132 142 136 129 121 116 107 100 98 97 94 91 85 80 76 73 67 63 61 51 43 36 22 10 358 348 340 334 326 322
331 310 45 78 227 160 203 88 163 181 180 193 137 125 77 133 138 132 128 146 137 127 122 112 105 104 102 99 96 94 91 89 85 82 76 73 72 58 47 42 31 20 12 8 6 360 347 334 321
322 43 37 50 119 238 260 167 188 186 193 130 120 114 92 141 139 130 124 133 133 127 119 111 106 101 99 97 97 96 93 85 79 76 70 62 66 51 35 29 14 6 1 358 350 340 333 327 323
150 87 220 168 185 263 251 207 192 132 226 149 132 105 136 161 148 141 133 124 119 111 111 106 98 100 100 99 97 94 92 80 70 60 49 49 40 29 18 5 355 350 345 335 328 322 319 318 316
195 109 304 305 164 244 223 202 186 165 205 126 144 166 167 166 151 153 142 132 122 116 110 101 96 95 99 98 93 90 91 83 64 53 46 40 25 20 14 360 348 333 329 319 312 310 311 310 309
202 70 299 265 255 237 218 190 179 168 196 168 187 170 165 160 157 151 141 138 135 129 126 117 109 109 108 103 97 84 59 36 37 40 36 23 25 22 13 4 355 344 334 326 318 313 309 304 299
139 120 232 210 238 190 205 191 170 149 154 159 143 145 155 158 158 146 145 149 146 147 144 140 129 120 121 125 115 86 34 6 7 22 18 16 14 7 2 359 353 344 338 335 330 327 320 314 314
234 221 271 286 286 198 189 229 156 145 159 155 151 150 159 159 155 150 151 151 153 154 158 157 157 155 149 139 125 111 47 5 6 4 3 4 360 354 353 354 352 348 346 341 336 329 323 318 319
301 281 268 287 198 153 170 200 164 174 172 155 153 155 155 153 152 156 157 157 150 144 146 152 145 147 150 153 171 119 49 27 13 0 357 354 352 349 347 345 344 342 342 341 335 332 318 313 315
209 266 268 260 151 159 174 156 137 153 160 158 158 164 167 160 158 156 157 155 156 158 154 153 154 148 142 158 102 74 66 28 5 349 348 354 347 336 335 339 340 339 332 331 330 332 324 320 316
308 299 317 174 105 109 123 150 109 155 160 164 169 167 166 170 163 158 162 164 169 166 169 166 174 171 117 106 87 65 117 38 354 347 3 355 348 348 346 341 332 327 327 316 317 317 318 318 311
312 314 16 0 172 148 141 15 165 171 170 171 172 161 159 166 167 170 173 170 170 165 163 176 176 162 131 133 113 109 157 321 349 10 353 335 338 338 341 328 319 318 310 307 308 309 310 310 310
353 46 13 294 229 234 159 230 231 166 171 178 163 159 161 165 171 172 174 176 176 177 169 172 178 174 161 156 153 211 276 293 311 321 325 322 321 317 317 317 319 315 308 311 312 315 317 318 315
12 282 309 307 221 178 136 218 196 183 179 183 165 163 163 165 169 173 175 178 175 174 158 159 181 187 184 179 203 236 262 288 334 349 344 339 321 314 313 315 316 314 313 314 319 320 322 317 312
264 348 299 266 281 168 178 193 177 186 193 196 187 165 170 172 174 171 170 169 167 154 143 131 211 214 227 234 237 262 299 327 346 343 340 350 357 353 349 341 334 323 319 316 314 315 314 313 315
222 235 236 290 342 71 69 68 236 218 219 208 202 176 170 163 165 167 165 166 164 160 157 164 221 224 239 250 262 295 315 334 341 342 344 339 344 343 343 338 331 322 313 311 312 312 313 316 320
242 3 340 317 342 83 137 134 38 346 288 223 218 165 156 161 167 165 166 166 168 172 177 193 194 245 293 296 294 309 321 330 332 333 335 342 339 340 340 332 326 321 317 315 315 316 316 315 320
43 72 17 73 327 18 44 11 20 8 26 27 36 185 177 168 159 164 162 169 181 180 183 215 301 319 317 302 311 321 326 332 327 325 332 339 336 336 334 328 327 324 321 324 322 322 322 319 321
46 312 43 32 60 278 45 254 13 329 7 22 30 134 155 155 164 164 173 176 167 169 231 296 312 295 288 306 318 324 327 322 317 324 332 332 333 333 331 327 325 322 323 326 328 328 324 324 326
227 309 30 349 49 113 341 90 257 360 353 342 16 69 102 125 156 166 162 154 195 272 237 213 251 264 315 315 318 313 309 307 312 317 320 325 330 328 325 324 325 325 324 324 326 328 326 323 320
305 19 38 37 56 33 251 113 326 13 273 311 68 78 91 102 134 132 135 199 225 208 214 211 224 287 313 314 304 293 287 292 296 309 320 328 329 324 319 319 319 322 325 322 318 321 317 317 318
53 51 344 359 6 234 204 46 239 359 8 80 113 106 122 132 63 185 157 166 137 125 132 102 331 331 301 272 248 263 273 297 317 326 331 331 326 318 318 321 324 325 320 320 317 321 322 315 309
108 133 155 256 247 265 5 128 179 145 108 111 118 119 127 155 181 117 117 105 94 95 104 81 19 316 299 273 286 296 302 310 321 329 333 329 320 319 321 320 326 333 330 322 325 328 329 325 319
312 338 188 128 6 71 216 330 317 78 69 87 93 104 106 103 101 97 99 100 96 82 56 25 355 337 320 311 304 301 307 318 326 328 321 321 330 331 323 321 330 333 336 351 351 345 338 334 338
78 250 37 21 27 312 288 236 212 105 125 114 97 91 106 96 97 94 88 77 60 36 12 349 338 326 318 312 310 314 318 320 321 318 320 340 358 358 353 359 5 21 7 346 344 337 334 331 335
342 35 60 124 146 210 260 265 231 157 155 115 89 97 100 97 93 86 69 42 18 359 349 344 338 335 325 318 320 323 324 326 328 336 345 342 348 352 357 7 354 351 342 340 346 349 351 344 333
134 142 111 115 269 215 150 271 359 93 93 81 94 93 95 91 84 60 34 16 3 356 348 344 345 349 339 326 326 332 334 338 345 352 349 347 354 358 354 6 353 4 355 354 3 13 360 347 352
Wind_Speed_850mb
38 35 27 6 7 10 4 2 9 19 13 24 49 32 13 19 6 13 33 31 34 34 32 29 29 31 32 34 34 35 35 34 34 34 33 31 31 29 27 25 23 21 18 15 12 10 9 9 11
37 31 15 6 9 9 6 9 23 31 37 38 77 42 28 17 33 43 38 35 32 32 29 29 28 28 30 32 33 34 35 34 34 32 33 31 31 30 28 26 25 24 22 20 18 16 15 15 17
34 24 6 8 6 8 7 10 22 37 45 8 15 21 14 16 37 32 46 42 32 31 29 30 29 29 30 30 30 32 33 33 33 31 31 30 29 28 26 24 23 23 23 23 22 22 23 23 23
20 9 4 8 4 6 9 9 38 29 31 20 23 12 20 31 50 49 39 39 31 31 29 29 28 28 28 29 29 30 31 30 29 28 29 28 27 25 23 23 24 26 25 24 23 24 25 26 27
15 5 7 6 3 5 7 7 17 21 25 18 34 17 14 34 55 51 31 31 31 32 29 27 26 27 27 27 29 30 31 31 31 31 28 27 26 28 26 26 27 27 27 28 29 30 29 29 31
6 2 7 2 3 7 12 36 16 12 15 28 37 32 21 43 45 47 43 41 31 33 32 29 28 27 30 30 32 35 35 34 34 29 25 24 24 21 22 20 19 23 26 26 29 28 26 28 30
8 7 7 8 9 4 11 13 17 21 16 13 38 14 31 47 37 41 39 39 37 34 35 37 34 35 39 39 38 37 32 31 30 25 22 22 22 21 23 23 26 27 26 29 31 32 30 30 31
5 9 6 1 8 16 16 18 16 33 34 21 50 15 32 64 52 46 30 38 40 37 40 38 35 31 27 29 29 26 24 20 23 23 22 21 23 24 24 26 29 32 33 35 34 33 35 38 38
10 7 7 13 4 15 16 12 18 31 13 40 33 51 75 70 60 60 60 57 47 41 38 38 35 32 29 23 22 17 15 16 19 21 21 22 23 26 29 32 34 34 35 37 38 40 43 45 46
7 7 15 15 9 10 24 26 32 11 34 24 48 63 67 80 77 76 76 67 53 48 43 37 38 38 31 23 17 13 10 14 18 21 24 28 26 35 39 43 45 44 44 46 46 45 44 46 49
2 11 13 6 17 37 34 10 25 30 17 62 69 72 85 88 80 76 70 62 57 50 46 40 33 33 29 24 16 9 3 7 14 23 30 35 37 43 47 50 49 49 49 51 51 52 54 56 58
7 47 37 23 14 25 25 35 28 44 35 72 69 80 84 81 78 80 80 77 70 64 55 52 46 40 28 16 8 2 6 12 18 24 33 40 45 50 53 54 54 58 61 61 58 57 54 57 57
12 46 52 34 15 31 39 15 13 37 67 63 59 59 61 81 84 91 89 75 67 58 50 49 40 25 15 9 6 14 9 10 16 23 31 35 38 43 50 55 57 51 56 50 66 61 56 57 58
15 35 6 22 9 16 36 22 14 45 71 65 64 57 59 74 92 88 77 67 57 50 49 40 32 19 10 7 12 15 11 9 13 22 29 30 39 40 40 44 40 47 40 45 53 55 60 63 68
29 8 9 3 8 8 50 5 18 59 75 72 63 65 82 84 86 82 75 68 58 50 41 34 28 17 16 16 11 9 4 4 12 19 19 25 31 21 29 32 47 40 37 41 48 58 65 73 83
12 9 12 11 2 8 16 12 11 50 60 64 54 74 84 88 88 80 74 67 59 51 40 29 28 20 18 19 10 5 8 10 14 18 22 25 28 33 42 46 40 40 49 61 70 75 76 66 47
15 7 9 23 16 11 9 11 17 46 52 54 57 82 86 85 79 76 68 61 55 45 35 23 20 17 18 15 10 12 13 13 21 30 36 43 42 52 58 56 58 65 71 73 63 60 58 59 68
14 7 11 14 20 17 13 13 14 55 55 57 56 71 78 87 85 77 67 58 49 39 27 9 15 19 15 12 14 15 14 22 31 45 49 48 54 57 62 71 74 71 70 66 60 62 64 73 76
7 10 12 11 10 9 5 11 15 20 19 28 34 70 66 68 78 73 67 56 46 32 16 6 11 11 15 15 13 13 18 26 43 53 55 58 62 65 75 78 81 71 70 71 73 74 74 72 68
6 5 11 9 19 10 7 4 3 19 17 39 41 49 56 69 78 75 63 49 31 23 20 18 12 5 12 15 15 18 24 36 50 54 52 59 68 71 81 80 79 67 63 64 61 58 63 65 57
8 11 7 5 12 13 15 12 24 14 46 38 14 44 72 82 76 66 56 38 32 25 14 6 7 14 21 19 19 22 30 46 57 58 55 67 67 72 77 70 61 60 59 56 51 47 45 52 51
8 2 9 9 10 2 9 6 10 15 23 27 48 36 54 59 66 57 48 45 33 9 4 9 10 17 15 18 20 30 49 59 50 49 54 63 64 74 67 60 55 55 52 48 43 41 42 42 46
10 5 7 5 3 5 12 11 9 11 16 16 30 28 26 37 33 46 42 26 10 8 9 10 13 9 12 18 34 47 38 33 38 42 51 57 72 75 64 55 54 49 49 42 38 40 40 39 39
8 8 14 10 5 6 7 9 8 5 6 11 35 42 33 28 26 29 18 13 13 15 20 18 8 7 18 29 22 17 25 30 33 40 51 66 75 63 55 52 47 47 45 39 43 43 39 38 33
19 15 8 9 10 8 6 8 10 4 9 14 37 48 35 21 14 14 23 20 20 20 16 3 7 20 16 18 20 22 24 26 35 51 63 67 63 56 51 44 44 47 41 42 44 40 36 32 30
1 12 9 3 4 9 9 8 5 5 30 47 47 42 39 32 25 25 31 30 28 23 13 8 5 10 8 14 20 26 33 40 50 58 59 55 52 45 43 42 39 41 39 39 37 33 30 28 26
9 5 7 7 6 6 3 5 8 14 22 35 36 41 41 55 62 60 50 42 32 24 21 18 18 22 27 32 39 44 47 54 61 65 54 45 40 42 42 37 36 32 30 28 29 30 30 28 27
10 5 10 9 5 6 4 4 7 12 12 15 28 47 60 58 50 42 37 30 26 24 25 29 32 35 38 41 45 48 51 59 58 46 35 27 35 43 34 24 24 23 26 32 35 36 32 31 28
11 7 7 8 9 9 2 8 7 14 9 16 36 53 60 51 41 34 29 28 33 41 51 56 56 49 43 38 38 45 54 48 35 27 20 27 32 34 32 21 28 33 32 35 42 34 31 29 26
9 5 7 9 9 5 7 8 10 7 25 46 48 54 45 38 32 29 33 42 54 62 65 61 51 40 27 28 37 43 42 36 26 24 27 26 30 32 30 22 29 29 28 31 34 36 36 32 26
Wind_Direction_850mb
351 346 334 334 51 62 107 249 84 76 34 339 303 261 152 62 51 126 130 144 134 122 120 121 118 116 112 108 103 97 93 90 87 82 77 74 74 73 69 66 63 60 54 44 29 6 338 313 293
349 348 339 14 77 66 328 340 78 110 120 174 254 253 53 68 91 121 130 126 130 122 122 119 114 107 102 99 97 96 94 89 81 76 74 71 67 65 62 57 50 45 37 29 18 4 346 328 315
338 338 345 93 91 127 150 104 149 128 142 239 269 35 52 104 107 133 129 128 131 129 127 121 115 110 105 98 94 92 90 87 83 77 71 65 62 61 59 53 41 31 20 11 3 354 344 335 327
331 334 66 83 139 353 143 185 161 159 210 156 101 63 88 125 128 132 134 132 142 136 129 121 116 107 100 98 97 94 91 85 80 76 73 67 63 61 51 43 36 22 10 358 348 340 334 326 322
331 310 45 78 227 160 203 88 163 181 180 193 137 125 77 133 138 132 128 146 137 127 122 112 105 104 102 99 96 94 91 89 85 82 76 73 72 58 47 42 31 20 12 8 6 360 347 334 321
322 43 37 50 119 238 260 167 188 186 193 130 120 114 92 141 139 130 124 133 133 127 119 111 106 101 99 97 97 96 93 85 79 76 70 62 66 51 35 29 14 6 1 358 350 340 333 327 323
150 87 220 168 185 263 251 207 192 132 226 149 132 105 136 161 148 141 133 124 119 111 111 106 98 100 100 99 97 94 92 80 70 60 49 49 40 29 18 5 355 350 345 335 328 322 319 318 316
195 109 304 305 164 244 223 202 186 165 205 126 144 166 167 166 151 153 142 132 122 116 110 101 96 95 99 98 93 90 91 83 64 53 46 40 25 20 14 360 348 333 329 319 312 310 311 310 309
202 70 299 265 255 237 218 190 179 168 196 168 187 170 165 160 157 151 141 138 135 129 126 117 109 109 108 103 97 84 59 36 37 40 36 23 25 22 13 4 355 344 334 326 318 313 309 304 299
139 120 232 210 238 190 205 191 170 149 154 159 143 145 155 158 158 146 145 149 146 147 144 140 129 120 121 125 115 86 34 6 7 22 18 16 14 7 2 359 353 344 338 335 330 327 320 314 314
234 221 271 286 286 198 189 229 156 145 159 155 151 150 159 159 155 150 151 151 153 154 158 157 157 155 149 139 125 111 47 5 6 4 3 4 360 354 353 354 352 348 346 341 336 329 323 318 319
301 281 268 287 198 153 170 200 164 174 172 155 153 155 155 153 152 156 157 157 150 144 146 152 145 147 150 153 171 119 49 27 13 0 357 354 352 349 347 345 344 342 342 341 335 332 318 313 315
209 266 268 260 151 159 174 156 137 153 160 158 158 164 167 160 158 156 157 155 156 158 154 153 154 148 142 158 102 74 66 28 5 349 348 354 347 336 335 339 340 339 332 331 330 332 324 320 316
308 299 317 174 105 109 123 150 109 155 160 164 169 167 166 170 163 158 162 164 169 166 169 166 174 171 117 106 87 65 117 38 354 347 3 355 348 348 346 341 332 327 327 316 317 317 318 318 311
312 314 16 0 172 148 141 15 165 171 170 171 172 161 159 166 167 170 173 170 170 165 163 176 176 162 131 133 113 109 157 321 349 10 353 335 338 338 341 328 319 318 310 307 308 309 310 310 310
353 46 13 294 229 234 159 230 231 166 171 178 163 159 161 165 171 172 174 176 176 177 169 172 178 174 161 156 153 211 276 293 311 321 325 322 321 317 317 317 319 315 308 311 312 315 317 318 315
12 282 309 307 221 178 136 218 196 183 179 183 165 163 163 165 169 173 175 178 175 174 158 159 181 187 184 179 203 236 262 288 334 349 344 339 321 314 313 315 316 314 313 314 319 320 322 317 312
264 348 299 266 281 168 178 193 177 186 193 196 187 165 170 172 174 171 170 169 167 154 143 131 211 214 227 234 237 262 299 327 346 343 340 350 357 353 349 341 334 323 319 316 314 315 314 313 315
222 235 236 290 342 71 69 68 236 218 219 208 202 176 170 163 165 167 165 166 164 160 157 164 221 224 239 250 262 295 315 334 341 342 344 339 344 343 343 338 331 322 313 311 312 312 313 316 320
242 3 340 317 342 83 137 134 38 346 288 223 218 165 156 161 167 165 166 166 168 172 177 193 194 245 293 296 294 309 321 330 332 333 335 342 339 340 340 332 326 321 317 315 315 316 316 315 320
43 72 17 73 327 18 44 11 20 8 26 27 36 185 177 168 159 164 162 169 181 180 183 215 301 319 317 302 311 321 326 332 327 325 332 339 336 336 334 328 327 324 321 324 322 322 322 319 321
46 312 43 32 60 278 45 254 13 329 7 22 30 134 155 155 164 164 173 176 167 169 231 296 312 295 288 306 318 324 327 322 317 324 332 332 333 333 331 327 325 322 323 326 328 328 324 324 326
227 309 30 349 49 113 341 90 257 360 353 342 16 69 102 125 156 166 162 154 195 272 237 213 251 264 315 315 318 313 309 307 312 317 320 325 330 328 325 324 325 325 324 324 326 328 326 323 320
305 19 38 37 56 33 251 113 326 13 273 311 68 78 91 102 134 132 135 199 225 208 214 211 224 287 313 314 304 293 287 292 296 309 320 328 329 324 319 319 319 322 325 322 318 321 317 317 318
53 51 344 359 6 234 204 46 239 359 8 80 113 106 122 132 63 185 157 166 137 125 132 102 331 331 301 272 248 263 273 297 317 326 331 331 326 318 318 321 324 325 320 320 317 321 322 315 309
108 133 155 256 247 265 5 128 179 145 108 111 118 119 127 155 181 117 117 105 94 95 104 81 19 316 299 273 286 296 302 310 321 329 333 329 320 319 321 320 326 333 330 322 325 328 329 325 319
312 338 188 128 6 71 216 330 317 78 69 87 93 104 106 103 101 97 99 100 96 82 56 25 355 337 320 311 304 301 307 318 326 328 321 321 330 331 323 321 330 333 336 351 351 345 338 334 338
78 250 37 21 27 312 288 236 212 105 125 114 97 91 106 96 97 94 88 77 60 36 12 349 338 326 318 312 310 314 318 320 321 318 320 340 358 358 353 359 5 21 7 346 344 337 334 331 335
342 35 60 124 146 210 260 265 231 157 155 115 89 97 100 97 93 86 69 42 18 359 349 344 338 335 325 318 320 323 324 326 328 336 345 342 348 352 357 7 354 351 342 340 346 349 351 344 333
134 142 111 115 269 215 150 271 359 93 93 81 94 93 95 91 84 60 34 16 3 356 348 344 345 349 339 326 326 332 334 338 345 352 349 347 354 358 354 6 353 4 355 354 3 13 360 347 352